STARLINK-32263, 60371

Orbit data source: Space-Track

STARLINK-32263, 60371 is a payload satellite owned by SpaceX/Seattle (US) in LEO that was launched on Sun, 04 Aug 2024 UTC via an FALCON 9 launch vehicle from the Air Force Western Test Range (AFWTR). Payload-class satellites include a variety of spacecraft equipped with specific instruments for various scientific and technological missions. These include communications satellites like Starlink; space stations such as the ISS; scientific satellites like the Hubble; Earth observation satellites from companies like Planet Labs, Umbra, and HawkEye 360; GPS; miniature CubeSats for education and research; and military/defense satellites.

Loading next visibility...
Identifier
60371, 2024-138S
Orbit
LEO
Country
Flag of USUS
Related business
Manufacturer
SpaceX/Seattle
Mission
Operational Commercial Communications
Bus & Motor
STARLINK V2M, Unknown motor
Mass
730 kg wet, ~700 kg dry
Launch date (UTC)
2024-08-04 (2 years ago)
Launch vehicle
FALCON 9
Launch site
Air Force Western Test Range (AFWTR)
Object type
Payload
Rocket body
Debris
Shape & HBR
Box + 2 Pan, 17.7 m
Radar Cross Section
33.884 m², Large (>1 m²)

Expand to show TLE details & history
Last TLE update: 16 hours ago

TLE from 16 hours ago
0 STARLINK-32263
1 60371U 24138S   26257.99465464  .00000583  00000-0  28416-4 0  9995
2 60371  53.1604 149.4087 0001783  84.2916 275.8290 15.34397794119523
Epoch: 2026-09-14T23:52Z
TLE epoch observation values (Epoch: 2026-09-14T23:52:18.160Z)
Latitude
-0.00003°
Longitude
157.36605°
Altitude
463.488 km
Speed
7.636 km/s
True Right ascension
09h 57m 38s
True Declination
0° 00' 00"
Sunlit
Object was in daylight at epoch
Visualization orbit readout
Latitude
Unknown
Longitude
Unknown
Altitude
Unknown
Speed
Unknown
Apparent Right ascension
Unknown
Apparent Declination
Unknown
Sunlit
N/A
Visualization observer readout
Local Sidereal Time
08:42:19
Azimuth
Unknown
Elevation
Unknown
Doppler factor
Unknown
Orbital elements
Apogee altitude
464.186 km
Perigee altitude
461.747 km
Semi-major axis
6,841.104 km
Eccentricity
0.00018
Inclination
53.1604°
RAAN
149.4087°
Arg. of periapsis
84.2916°
True anomaly
275.80867°
Mean anomaly
275.829°
Eccentric anomaly
275.81884°
Mean motion
3.83578 °/min
Orbital period
93.85 mins
BSTAR
0.000028416
Loading maneuver chart data...
Computing Atmospheric mass density...
Loading historical data...
Loading historical data...
Loading historical data...
Loading historical data...
Loading historical data...
Loading historical data...
Loading historical data...

Documentation

Showing up to 5 results
|